User: anonymous   Login
Location: Unspecified
(0.0000°N, 0.0000°E)
Time: 06:05:06
(UTC+00:00)
Language:

USA 186 - Orbit

View from above orbital plane
View from above orbital plane
View from above satellite
View from above satellite

Ground track
Ground track

The orbit data is extracted from the following two-line orbital elements,

1 28888U 05042A   17227.79052026 0.00012000  00000-0  56528-4 0    01
2 28888  96.8659 265.9043 0131256 246.3072 113.6926 15.71197177    04
Epoch (UTC): 15 August 2017 18:58:20
Eccentricity: 0.0131256
inclination: 96.8659°
perigee height: 267 km
apogee height: 444 km
right ascension of ascending node: 265.9043°
argument of perigee: 246.3072°
revolutions per day: 15.71197177
mean anomaly at epoch: 113.6926°
orbit number at epoch: 0

The dashed part of the orbit path shows where the satellite is in the earth's shadow,  

DLR